| time (UTC) | temp C | wind direction | speed KPH | gust KPH | rain 1hr cm | rain 24hr cm | rain mn cm | humidity % | barometer mb |
| 20260506100054 | 18 | 115 | 0.0 | 0.0 | 0.00 | 0.00 | 0.00 | 96 | 1013.9 |
| 20260506094550 | 18 | 115 | 0.0 | 0.0 | 0.00 | 0.00 | 0.00 | 96 | 1013.8 |
| 20260506093048 | 18 | 115 | 0.0 | 0.0 | 0.00 | 0.00 | 0.00 | 96 | 1013.7 |
| 20260506091550 | 18 | 115 | 0.0 | 0.0 | 0.00 | 0.00 | 0.00 | 96 | 1013.6 |
| 20260506090047 | 18 | 115 | 0.0 | 0.0 | 0.00 | 0.00 | 0.00 | 96 | 1013.4 |
| 20260506084546 | 18 | 115 | 0.0 | 0.0 | 0.00 | 0.00 | 0.00 | 96 | 1013.4 |
| 20260506083049 | 18 | 115 | 0.0 | 0.0 | 0.00 | 0.00 | 0.00 | 96 | 1013.5 |
| 20260506081542 | 18 | 115 | 0.0 | 0.0 | 0.00 | 0.00 | 0.00 | 95 | 1013.6 |
| 20260506073040 | 19 | 115 | 0.0 | 0.0 | 0.00 | 0.00 | 0.00 | 94 | 1013.6 |
| 20260506071538 | 19 | 115 | 0.0 | 0.0 | 0.00 | 0.00 | 0.00 | 95 | 1013.9 |
| 20260506061532 | 20 | 115 | 0.0 | 0.0 | 0.00 | 0.00 | 0.00 | 94 | 1014.1 |
| 20260506044519 | 21 | 115 | 0.0 | 0.0 | 0.00 | 0.00 | 0.00 | 88 | 1014.3 |
| 20260506043016 | 21 | 115 | 0.0 | 0.0 | 0.00 | 0.00 | 0.00 | 87 | 1014.4 |
| 20260506041513 | 22 | 115 | 0.0 | 1.6 | 0.00 | 0.00 | 0.00 | 87 | 1014.5 |
| 20260506040016 | 22 | 115 | 0.0 | 0.0 | 0.00 | 0.00 | 0.00 | 86 | 1014.6 |
| 20260506034510 | 22 | 115 | 0.0 | 0.0 | 0.00 | 0.00 | 0.00 | 84 | 1014.7 |
| 20260506033008 | 22 | 115 | 0.0 | 1.6 | 0.00 | 0.00 | 0.00 | 83 | 1014.8 |
| 20260506031507 | 22 | 115 | 0.0 | 1.6 | 0.00 | 0.00 | 0.00 | 83 | 1014.8 |
| 20260506030007 | 22 | 115 | 0.0 | 1.6 | 0.00 | 0.00 | 0.00 | 83 | 1014.7 |
| 20260506024507 | 22 | 115 | 0.0 | 1.6 | 0.00 | 0.00 | 0.00 | 83 | 1014.5 |
| 20260506023006 | 22 | 104 | 0.0 | 1.6 | 0.00 | 0.00 | 0.00 | 83 | 1014.3 |
| 20260506021509 | 23 | 92 | 0.0 | 3.2 | 0.00 | 0.00 | 0.00 | 82 | 1014.4 |
| 20260506020004 | 23 | 60 | 0.0 | 3.2 | 0.00 | 0.00 | 0.00 | 82 | 1014.3 |
| 20260506014504 | 23 | 146 | 0.0 | 1.6 | 0.00 | 0.00 | 0.00 | 81 | 1014.2 |
| 20260506013003 | 23 | 169 | 0.0 | 0.0 | 0.00 | 0.00 | 0.00 | 79 | 1013.9 |
| 20260506011502 | 23 | 69 | 0.0 | 1.6 | 0.00 | 0.00 | 0.00 | 79 | 1013.8 |
| 20260506010002 | 23 | 41 | 0.0 | 1.6 | 0.00 | 0.00 | 0.00 | 79 | 1013.5 |
| 20260506004501 | 23 | 40 | 0.0 | 3.2 | 0.00 | 0.00 | 0.00 | 78 | 1013.4 |
| 20260506003001 | 23 | 39 | 0.0 | 3.2 | 0.00 | 0.00 | 0.00 | 79 | 1013.2 |
| 20260506001600 | 23 | 37 | 0.0 | 3.2 | 0.00 | 0.00 | 0.00 | 78 | 1013.2 |
| 20260505234610 | 24 | 62 | 0.0 | 8.0 | 0.00 | 0.00 | 0.00 | 75 | 1013.1 |
| 20260505233059 | 25 | 101 | 0.0 | 6.4 | 0.00 | 0.00 | 0.00 | 74 | 1013.1 |
| 20260505231558 | 25 | 30 | 1.6 | 11.3 | 0.00 | 0.00 | 0.00 | 73 | 1013.3 |
| 20260505224658 | 25 | 187 | 1.6 | 17.7 | 0.00 | 0.00 | 0.00 | 74 | 1013.6 |
| 20260505223056 | 25 | 120 | 3.2 | 14.5 | 0.00 | 0.00 | 0.00 | 73 | 1013.6 |
| 20260505221555 | 26 | 16 | 0.0 | 16.1 | 0.00 | 0.00 | 0.00 | 69 | 1013.4 |
| 20260505220054 | 26 | 173 | 1.6 | 11.3 | 0.00 | 0.00 | 0.00 | 69 | 1013.5 |
| 20260505214613 | 26 | 9 | 4.8 | 14.5 | 0.00 | 0.00 | 0.00 | 71 | 1013.2 |
| 20260505213102 | 26 | 68 | 4.8 | 14.5 | 0.00 | 0.00 | 0.00 | 69 | 1013.2 |
| 20260505211552 | 26 | 56 | 6.4 | 20.9 | 0.00 | 0.00 | 0.00 | 66 | 1013.3 |
| 20260505210057 | 27 | 146 | 6.4 | 17.7 | 0.00 | 0.00 | 0.00 | 65 | 1013.2 |
| 20260505204557 | 27 | 143 | 1.6 | 17.7 | 0.00 | 0.00 | 0.00 | 67 | 1013.1 |
| 20260505203054 | 27 | 210 | 1.6 | 19.3 | 0.00 | 0.00 | 0.00 | 63 | 1013.2 |
| 20260505201553 | 28 | 164 | 3.2 | 11.3 | 0.00 | 0.00 | 0.00 | 65 | 1013.2 |
| 20260505200059 | 27 | 57 | 3.2 | 14.5 | 0.00 | 0.00 | 0.00 | 65 | 1013.3 |
| 20260505194549 | 28 | 233 | 4.8 | 12.9 | 0.00 | 0.00 | 0.00 | 64 | 1013.6 |
| 20260505193049 | 27 | 43 | 4.8 | 14.5 | 0.00 | 0.00 | 0.00 | 66 | 1013.8 |
| 20260505191545 | 27 | 35 | 4.8 | 19.3 | 0.00 | 0.00 | 0.00 | 65 | 1013.9 |
| 20260505190042 | 27 | 123 | 1.6 | 20.9 | 0.00 | 0.00 | 0.00 | 64 | 1014.1 |
| 20260505184541 | 27 | 20 | 4.8 | 12.9 | 0.00 | 0.00 | 0.00 | 64 | 1014.4 |
| 20260505183040 | 27 | 146 | 1.6 | 20.9 | 0.00 | 0.00 | 0.00 | 65 | 1014.3 |
| 20260505181541 | 27 | 104 | 6.4 | 16.1 | 0.00 | 0.00 | 0.00 | 65 | 1014.4 |
| 20260505180100 | 27 | 70 | 3.2 | 16.1 | 0.00 | 0.00 | 0.00 | 65 | 1014.4 |
| 20260505174556 | 28 | 70 | 1.6 | 9.7 | 0.00 | 0.00 | 0.00 | 66 | 1014.6 |
| 20260505173044 | 27 | 93 | 1.6 | 16.1 | 0.00 | 0.00 | 0.00 | 70 | 1014.6 |
| 20260505171537 | 27 | 36 | 4.8 | 12.9 | 0.00 | 0.00 | 0.00 | 63 | 1014.6 |
| 20260505170036 | 27 | 174 | 1.6 | 11.3 | 0.00 | 0.00 | 0.00 | 64 | 1014.6 |
| 20260505164535 | 28 | 96 | 3.2 | 17.7 | 0.00 | 0.00 | 0.00 | 65 | 1014.4 |
| 20260505163034 | 27 | 49 | 0.0 | 12.9 | 0.00 | 0.00 | 0.00 | 68 | 1014.8 |
| 20260505161530 | 27 | 152 | 0.0 | 14.5 | 0.00 | 0.00 | 0.00 | 68 | 1014.6 |
| 20260505153028 | 26 | 68 | 1.6 | 11.3 | 0.00 | 0.00 | 0.00 | 74 | 1014.7 |
| 20260505151523 | 26 | 56 | 3.2 | 12.9 | 0.00 | 0.00 | 0.00 | 72 | 1014.6 |
| 20260505124506 | 25 | 108 | 0.0 | 12.9 | 0.00 | 0.00 | 0.00 | 77 | 1013.9 |
| 20260505123002 | 24 | 163 | 3.2 | 12.9 | 0.00 | 0.00 | 0.00 | 78 | 1014.1 |
| 20260505121558 | 23 | 44 | 3.2 | 16.1 | 0.00 | 0.00 | 0.00 | 81 | 1014.2 |
| 20260505120053 | 22 | 63 | 0.0 | 3.2 | 0.00 | 0.00 | 0.00 | 84 | 1013.9 |
| 20260505114550 | 22 | 41 | 0.0 | 6.4 | 0.00 | 0.00 | 0.00 | 86 | 1013.5 |
| 20260505113051 | 21 | 59 | 0.0 | 3.2 | 0.00 | 0.00 | 0.00 | 89 | 1013.5 |
| 20260505111546 | 20 | 133 | 0.0 | 1.6 | 0.00 | 0.00 | 0.00 | 92 | 1013.2 |
| 20260505101544 | 18 | 149 | 0.0 | 0.0 | 0.00 | 0.00 | 0.00 | 94 | 1012.7 |